Regional Weather Roundup
Issued by NWS

Home | Current Version | Previous Version | Graphics & Text | Print | Product List | Glossary On
Versions: 1 2 3 4 5 6 7 8 9 10 11 12 13 14 15 16 17 18 19 20 21 22 23 24 25 26 27 28 29 30 31 32 33 34 35 36 37 38 39 40 41 42 43 44 45 46 47 48 49 50
000
ASUS43 KTOP 250959
RWRKS

WEATHER ROUNDUP FOR KANSAS
NATIONAL WEATHER SERVICE GOODLAND KS
500 AM CDT SUN JUN 25 2017

NOTE:  "FAIR" INDICATES FEW OR NO CLOUDS BELOW 12,000 FEET WITH NO
SIGNIFICANT WEATHER AND/OR OBSTRUCTIONS TO VISIBILITY.

KSZ001>006-013>018-027>032-041>047-251100-
NORTHWEST KANSAS

CITY           SKY/WX    TMP DP  RH WIND       PRES   REMARKS
GOODLAND       PTCLDY    54  53  97 SE7       30.30F
HAYS           TSTM      59  53  80 S3        30.29S
HILL CITY      CLOUDY    60  58  92 CALM      30.30S
RUSSELL        CLOUDY    57  53  86 SE7       30.27S
$$

KSZ061>065-074>080-084>089-251100-
SOUTHWEST KANSAS

CITY           SKY/WX    TMP DP  RH WIND       PRES   REMARKS
DODGE CITY     MOCLDY    64  56  75 CALM      30.27S
ELKHART          N/A     64  52  65 E3          N/A
GARDEN CITY    CLOUDY    65  52  62 S5        30.27S
GREAT BEND     CLOUDY    65  49  56 E9        30.29R
LIBERAL        CLOUDY    66  52  60 S13       30.27F
$$

KSZ066>073-081>083-090>101-251100-
SOUTHEAST KANSAS

CITY           SKY/WX    TMP DP  RH WIND       PRES   REMARKS
CHANUTE        CLOUDY    65  53  65 NW7       30.28R
COFFEYVILLE    PTCLDY    62  58  86 NW5       30.26S
HUTCHINSON     CLOUDY    63  49  60 SE8       30.27F
MEDICINE LODGE   N/A     65  53  65 E6        30.26S
NEWTON         LGT RAIN  62  53  72 SE12      30.27F
PARSONS        CLOUDY    60  57  89 CALM      30.28R
WICHITA INTL   MOCLDY    67  55  65 NE8       30.28R
WICHITA JABRA  CLOUDY    64  54  69 NE5       30.28F
WINFIELD       CLEAR     60  54  80 CALM      30.29R
$$

KSZ007>012-019>026-033>040-048>060-102>105-251100-
NORTHEAST KANSAS

CITY           SKY/WX    TMP DP  RH WIND       PRES   REMARKS
CONCORDIA      PTCLDY    59  51  75 SW7       30.27R
EMPORIA        CLOUDY    61  57  87 SW5       30.26F
LAWRENCE       MOCLDY    60  54  80 NW3       30.25R
MANHATTAN      CLEAR     57  53  86 CALM      30.27R
OLATHE IND     MOCLDY    65  52  62 W8        30.25R
OLATHE EXE     PTCLDY    64  52  64 W7        30.25R
SALINA         MOCLDY    62  56  80 S5        30.27F
TOPEKA BILLARD PTCLDY    62  53  72 W3        30.25R
TOPEKA FORBES  PTCLDY    64  53  67 W8        30.25R
$$




USA.gov is the U.S. government's official web portal to all federal, state and local government web resources and services.